TimePST,TemperatureF,Dew PointF,Humidity,Sea Level PressureIn,VisibilityMPH,Wind Direction,Wind SpeedMPH,Gust SpeedMPH,PrecipitationIn,Events,Conditions,WindDirDegrees,DateUTC
12:53 AM,50.0,46.0,86,30.06,2.5,East,8.1,-,N/A,,Clear,100,2012-11-28 08:53:00
1:53 AM,48.0,45.0,89,30.04,2.0,SSW,3.5,-,N/A,,Clear,200,2012-11-28 09:53:00
2:11 AM,46.4,42.8,87,30.03,1.8,SSW,5.8,-,N/A,,Clear,200,2012-11-28 10:11:00
2:23 AM,46.4,44.6,93,30.03,2.0,South,3.5,-,N/A,,Clear,180,2012-11-28 10:23:00
2:53 AM,45.0,42.1,90,30.01,2.0,SE,5.8,-,N/A,,Clear,140,2012-11-28 10:53:00
3:46 AM,44.6,41.0,87,29.99,3.0,South,4.6,-,N/A,,Clear,190,2012-11-28 11:46:00
3:53 AM,43.0,39.9,89,29.99,2.5,South,5.8,-,N/A,,Clear,170,2012-11-28 11:53:00
4:02 AM,42.8,41.0,93,29.97,3.0,SSE,5.8,-,N/A,,Clear,160,2012-11-28 12:02:00
4:53 AM,46.0,42.1,86,30.01,7.0,South,5.8,-,N/A,,Clear,170,2012-11-28 12:53:00
5:53 AM,46.0,42.1,86,30.02,7.0,SSE,6.9,-,N/A,,Overcast,160,2012-11-28 13:53:00
6:53 AM,45.0,42.1,90,30.04,3.0,East,3.5,-,N/A,,Mostly Cloudy,80,2012-11-28 14:53:00
7:53 AM,50.0,44.1,80,30.06,3.0,ESE,4.6,-,N/A,,Haze,110,2012-11-28 15:53:00
8:53 AM,54.0,46.9,77,30.07,4.0,Calm,Calm,-,N/A,,Haze,0,2012-11-28 16:53:00
9:53 AM,61.0,46.9,60,30.05,7.0,SE,8.1,-,N/A,,Overcast,140,2012-11-28 17:53:00
10:53 AM,61.0,48.0,62,30.04,7.0,ESE,5.8,-,N/A,,Mostly Cloudy,110,2012-11-28 18:53:00
11:35 AM,55.4,51.8,88,30.04,1.8,East,9.2,-,0.05,Rain,Rain,90,2012-11-28 19:35:00
11:53 AM,55.9,52.0,87,30.05,3.0,ENE,5.8,-,0.09,Rain,Light Rain,70,2012-11-28 19:53:00
12:53 PM,59.0,52.0,78,30.05,7.0,East,5.8,-,0.01,,Overcast,100,2012-11-28 20:53:00
1:53 PM,60.1,52.0,75,30.05,8.0,ENE,8.1,-,0.00,,Overcast,70,2012-11-28 21:53:00
2:53 PM,57.9,53.1,84,30.05,8.0,East,13.8,20.7,N/A,,Overcast,90,2012-11-28 22:53:00
3:53 PM,57.9,52.0,81,30.06,7.0,East,6.9,-,0.00,Rain,Light Rain,80,2012-11-28 23:53:00
4:53 PM,57.0,53.1,87,30.07,10.0,ENE,6.9,-,0.01,,Overcast,60,2012-11-29 00:53:00
5:53 PM,57.0,53.1,87,30.09,10.0,NE,5.8,-,N/A,,Mostly Cloudy,50,2012-11-29 01:53:00
6:53 PM,55.9,52.0,87,30.10,10.0,ENE,3.5,-,N/A,,Overcast,60,2012-11-29 02:53:00
7:53 PM,55.0,52.0,89,30.10,10.0,East,3.5,-,N/A,,Overcast,80,2012-11-29 03:53:00
8:53 PM,51.1,48.9,92,30.11,7.0,South,3.5,-,N/A,,Clear,190,2012-11-29 04:53:00
9:53 PM,53.1,51.1,93,30.12,5.0,Calm,Calm,-,N/A,,Overcast,0,2012-11-29 05:53:00
11:53 PM,54.0,53.1,97,30.12,4.0,Calm,Calm,-,0.00,,Overcast,0,2012-11-29 07:53:00